RH
22 22 22 22 22 24 26 27 28 29 30 30 31 32 31 31 31 32 33 34 33 31 29 35 42 47 48 46 45 46 49 51 50 47 44 42 42 43 46 47 48 49 50 51 52 52 52 52 51 49 47 47 48 49 49 47 46 44 43 42 43 43 43 43 43 43 45 45 44 43 42 44 44 43 41 40 40 41 42 43 43 43 42 42 42 42 43 44 44 45 46 46 47 47 48 47 46 45 44 45 47 48 49
23 22 21 20 20 20 22 24 26 27 29 30 31 31 31 31 31 32 33 34 34 33 30 30 33 37 43 44 45 45 47 49 49 49 48 47 47 47 48 48 49 50 51 52 53 53 54 54 54 52 50 49 49 50 50 49 48 47 46 45 45 44 43 43 43 44 46 48 47 45 42 45 45 44 43 41 41 42 44 44 44 44 43 42 42 42 43 44 44 45 45 46 47 47 48 48 47 46 45 46 47 48 50
32 31 29 26 24 22 21 22 24 25 27 28 30 31 31 32 32 33 33 33 34 33 32 31 30 31 34 38 40 42 42 44 47 49 53 54 55 54 53 51 51 51 52 53 54 54 55 56 56 56 54 52 51 51 51 50 50 49 48 48 47 47 45 44 43 43 45 46 46 45 43 44 46 46 45 43 42 43 45 45 44 44 43 42 42 42 43 43 44 44 45 46 47 48 48 48 47 47 47 46 47 49 50
32 33 33 31 29 27 25 23 22 21 22 24 26 28 30 31 32 33 33 33 33 33 34 33 32 32 32 34 34 35 35 37 41 46 51 56 59 60 58 56 54 54 55 55 55 55 55 56 58 59 58 56 53 51 50 50 49 49 49 49 49 49 48 46 44 43 44 45 45 45 45 45 47 48 47 45 45 45 46 46 45 45 44 43 42 42 42 43 44 44 45 46 47 47 48 48 47 47 47 47 47 48 50
28 31 33 33 32 30 28 27 27 27 27 26 25 26 28 29 31 32 33 33 34 34 36 35 35 34 35 35 35 35 34 35 35 37 41 47 53 57 60 58 57 57 57 57 57 56 55 56 58 60 60 58 55 52 50 49 49 49 50 50 51 50 50 48 46 45 44 44 46 47 47 47 48 49 49 47 47 47 48 47 47 46 45 44 43 42 42 43 44 44 45 46 47 47 48 48 48 47 47 47 47 47 49
26 28 32 34 34 34 32 32 32 34 34 34 32 30 29 30 31 32 34 34 35 36 37 36 35 35 36 37 38 39 39 38 36 35 36 38 42 46 51 53 55 56 57 58 58 57 56 56 57 59 60 58 56 53 50 48 48 48 49 50 51 51 51 50 48 47 46 46 47 48 48 49 49 49 49 49 50 50 50 49 48 46 45 44 43 43 43 44 44 45 46 48 48 48 48 48 48 48 47 47 47 46 47
25 25 26 30 33 35 35 34 35 36 37 38 37 35 34 33 34 34 34 34 36 37 37 36 36 39 44 47 47 45 43 41 38 36 35 36 37 39 41 46 49 51 54 56 57 57 56 56 56 57 58 57 55 53 51 49 47 47 48 50 51 52 52 51 49 48 47 47 48 48 48 49 51 51 51 52 53 54 53 50 48 47 45 43 43 43 43 44 45 46 47 48 49 49 48 48 48 48 48 47 47 46 45
29 26 23 25 28 32 35 36 36 36 37 37 37 37 37 36 36 36 35 35 36 38 38 36 37 42 49 53 53 49 44 40 37 36 36 37 38 38 37 38 41 45 48 51 53 55 55 55 55 56 56 55 54 52 51 49 47 46 47 49 51 52 52 51 50 49 48 49 49 49 49 51 51 52 53 54 56 56 54 51 49 47 45 43 43 43 44 44 45 46 47 48 49 50 49 48 48 48 48 48 47 46 45
34 31 28 26 27 29 33 37 38 38 37 36 36 36 37 37 37 36 35 35 36 38 39 37 37 39 44 48 49 48 43 40 39 39 39 38 38 38 35 35 38 42 46 48 50 52 53 54 54 55 54 54 52 51 50 48 47 46 46 49 51 52 52 51 50 49 49 50 50 50 51 52 53 54 55 57 58 58 56 52 49 47 45 44 43 43 44 44 46 47 48 49 49 50 49 48 47 47 47 47 47 47 45
36 35 34 32 30 29 29 33 37 39 38 36 35 35 36 36 36 36 36 37 38 39 39 39 38 38 38 41 42 42 41 43 46 47 46 42 39 37 33 34 38 42 46 47 49 50 51 52 53 53 52 51 50 49 47 46 45 45 45 47 50 52 53 52 50 50 49 50 52 53 53 53 54 55 57 58 60 60 57 53 50 48 46 45 44 44 44 45 46 47 48 49 50 50 49 48 46 45 45 45 45 46 45
36 35 35 34 33 31 30 31 33 35 37 36 35 34 34 35 35 36 38 38 38 38 38 38 37 37 37 38 38 38 39 44 49 52 52 48 43 38 34 35 38 42 45 47 47 48 49 50 51 51 50 49 47 46 44 43 43 43 43 46 48 51 52 51 51 50 50 50 51 53 54 54 54 55 57 58 60 60 58 55 52 49 48 47 46 46 46 46 46 47 47 48 49 50 49 48 46 44 43 42 43 43 44
35 36 35 35 34 34 33 33 33 35 36 36 35 35 34 34 34 35 36 37 36 36 36 36 36 36 36 37 37 37 38 41 45 49 50 49 46 42 38 37 38 40 43 44 45 46 47 48 49 48 47 46 44 43 41 41 40 41 42 44 47 49 50 50 50 50 50 51 52 53 54 53 53 54 56 57 58 59 59 56 53 51 50 49 48 47 47 47 47 47 47 48 48 48 48 46 44 42 41 40 40 40 41
36 36 36 36 36 36 35 35 35 36 36 36 36 35 35 35 35 35 35 35 35 34 34 34 33 33 34 35 36 37 37 38 40 41 43 44 44 43 40 38 38 38 40 41 42 43 45 46 46 46 45 43 41 40 39 39 38 39 40 43 45 47 49 49 49 49 49 50 52 54 53 52 53 53 54 55 56 57 57 56 54 53 52 51 50 48 47 47 47 47 47 47 46 46 45 43 41 39 37 36 36 36 36
37 36 36 36 37 38 38 37 37 37 37 37 37 37 37 37 37 36 36 36 36 35 34 33 32 31 31 33 34 36 37 37 38 38 38 39 40 41 41 39 38 37 37 38 39 40 42 43 43 43 42 40 39 38 38 38 38 38 39 41 43 45 47 47 47 48 49 50 52 53 53 54 54 55 54 54 54 55 56 56 55 54 54 53 51 49 47 46 46 46 46 45 43 42 40 38 36 34 32 31 31 30 31
36 35 35 35 36 37 38 38 38 38 38 39 39 39 39 39 39 38 38 38 37 36 34 32 31 30 30 30 32 33 35 36 36 36 36 36 37 38 39 39 38 36 35 35 36 37 39 40 40 40 39 37 37 36 36 37 38 38 38 40 41 42 44 45 45 46 47 48 50 52 53 53 54 55 56 55 54 54 54 55 55 55 56 55 53 50 47 46 45 45 45 43 40 38 35 34 32 31 30 29 28 26 25
35 35 35 34 34 34 34 36 37 38 39 39 39 39 39 39 39 39 39 38 37 36 35 33 32 31 30 30 30 31 32 33 33 34 33 33 34 35 37 38 38 36 35 34 35 36 37 38 38 38 37 35 34 34 34 36 37 38 38 39 40 40 41 42 43 44 45 45 47 49 51 52 53 55 58 57 55 54 53 54 56 57 58 56 54 50 47 46 45 45 45 42 38 35 32 31 31 31 31 30 28 26 23
36 36 35 34 33 32 32 33 34 35 37 38 38 39 39 39 39 39 40 39 38 38 37 36 35 34 34 33 32 32 32 32 32 33 33 32 32 33 35 36 37 37 36 35 35 35 36 37 37 36 36 34 33 32 32 34 35 36 37 37 38 39 40 41 41 42 43 42 43 46 50 51 53 55 57 58 57 56 54 55 56 57 59 57 55 51 47 46 45 46 45 42 38 34 31 30 30 30 32 32 31 28 25
36 37 37 36 34 33 32 32 32 32 33 35 37 38 39 39 40 40 40 40 40 40 40 39 38 38 37 36 36 35 34 34 34 33 33 32 31 31 32 33 35 36 36 35 35 35 36 36 37 36 36 34 33 32 31 32 33 34 35 36 36 37 39 39 40 41 41 40 41 44 50 52 53 54 54 57 58 58 56 56 57 58 58 57 55 51 48 46 46 47 47 43 38 34 32 30 30 30 31 32 32 31 29
40 39 39 38 37 36 35 33 33 34 35 36 36 37 38 40 41 42 42 42 42 42 42 41 40 39 39 38 37 37 36 36 35 35 34 33 32 31 30 31 32 33 34 35 35 35 36 37 37 37 37 35 34 32 31 30 31 32 34 34 34 35 37 38 39 40 41 40 41 44 50 52 52 52 53 57 59 60 59 58 58 58 58 57 54 51 48 47 47 48 49 46 41 36 33 31 30 29 30 31 32 33 33
45 44 43 42 41 41 40 41 43 45 46 44 41 39 39 41 42 43 44 44 44 44 43 42 41 40 39 38 37 37 36 36 37 36 36 36 35 34 33 32 31 31 31 32 33 34 35 37 38 39 38 37 35 33 31 30 31 31 32 33 33 33 34 36 38 39 40 40 41 44 50 51 51 52 53 58 62 63 62 61 60 59 57 56 54 51 48 47 48 50 51 49 44 39 35 33 31 29 29 29 30 32 34
48 48 48 47 45 45 48 53 57 58 58 53 48 44 42 42 43 43 44 45 45 45 44 43 42 41 40 38 37 37 37 37 37 37 38 38 38 37 36 35 33 32 31 30 31 32 34 36 38 40 40 39 37 35 33 31 31 31 32 32 32 32 33 34 36 37 38 39 40 44 49 50 51 52 56 60 64 67 66 63 62 60 58 56 54 52 49 48 48 50 52 51 48 43 38 35 32 30 29 29 29 30 33
53 53 52 50 48 47 51 56 58 58 55 50 46 43 42 42 42 43 44 46 47 46 45 44 43 42 41 40 40 40 40 39 38 38 37 38 38 38 38 37 35 34 32 30 30 31 32 35 38 40 41 40 38 37 34 33 32 31 32 32 33 32 32 33 34 35 36 37 39 43 49 50 51 53 58 61 66 69 67 66 64 61 59 57 55 52 49 48 48 50 52 53 51 47 42 38 34 32 31 30 30 30 32
63 61 59 56 51 46 45 47 47 45 44 43 43 44 45 46 46 45 46 49 50 50 47 45 44 44 44 43 42 41 41 41 40 40 39 37 37 37 38 38 37 36 34 32 31 31 31 33 36 39 40 40 39 38 36 34 33 32 32 32 32 32 32 32 32 33 34 34 37 41 48 51 52 54 59 63 67 69 67 68 66 64 61 58 56 53 50 49 48 49 52 54 54 51 47 42 38 35 33 33 32 32 33
64 64 63 59 52 45 38 36 36 37 39 41 45 49 52 53 53 53 53 54 55 54 52 49 46 45 44 44 42 41 39 40 41 41 40 39 38 38 38 38 38 37 36 35 33 33 32 33 34 36 38 39 39 38 37 35 34 33 32 32 32 32 32 32 32 33 33 33 34 38 45 49 51 53 58 63 68 71 69 69 68 65 63 60 57 55 52 50 49 49 51 54 55 54 51 47 42 38 35 35 35 35 36
59 59 58 55 50 45 40 36 36 39 42 45 47 50 55 59 60 60 59 60 59 58 55 50 46 42 41 41 40 39 38 39 40 41 42 40 40 39 40 39 38 38 37 37 36 35 34 34 34 35 36 37 38 38 37 36 35 34 32 32 32 32 32 32 32 33 33 32 32 35 40 46 50 52 54 61 67 72 73 70 68 66 64 61 58 56 54 52 51 50 51 53 54 55 54 50 46 41 37 36 36 37 38
51 52 52 49 47 47 48 48 48 48 51 54 55 55 56 59 62 63 67 67 65 60 55 47 40 36 34 35 37 38 39 40 41 41 42 41 41 41 41 40 39 38 38 38 38 37 37 36 36 35 35 35 35 36 36 36 35 34 33 32 31 31 32 32 33 33 33 32 32 32 35 42 47 50 52 57 62 68 74 71 69 67 65 61 59 57 55 53 52 52 52 53 54 55 55 52 49 44 39 37 36 37 39
51 51 50 46 46 48 52 53 54 54 55 57 58 57 55 57 65 73 75 73 67 61 55 49 43 38 34 35 36 38 40 40 41 42 41 40 40 41 42 41 40 39 38 38 38 38 38 38 38 37 36 35 35 34 34 35 34 34 33 32 31 31 31 31 32 33 33 33 32 32 32 38 44 49 51 53 58 65 71 73 71 68 65 60 58 55 54 54 53 53 53 53 53 54 54 52 50 46 41 37 36 36 39
54 52 49 47 46 46 48 49 49 49 49 51 51 50 46 47 58 70 74 70 63 56 51 48 44 41 38 37 36 36 37 39 40 41 41 38 38 40 42 42 41 40 39 39 39 39 38 39 39 39 38 37 35 34 33 33 33 34 34 32 31 30 30 30 31 32 33 33 33 32 31 34 40 46 51 52 56 61 68 73 73 70 65 59 55 52 51 51 52 52 52 53 53 53 53 52 50 46 42 38 35 35 37
52 50 48 47 47 47 46 46 45 45 45 47 48 49 48 46 51 60 67 63 60 56 53 51 48 45 42 40 38 38 38 39 39 40 40 40 40 40 40 40 39 38 38 39 40 40 39 39 39 39 39 39 37 35 33 32 32 33 33 33 32 30 30 29 30 31 32 33 33 32 31 31 35 42 49 52 54 58 65 71 73 71 65 59 54 49 47 47 48 50 51 52 52 52 52 50 49 46 43 39 36 34 35
46 46 47 47 47 48 48 48 47 46 45 45 47 50 54 53 54 56 60 61 62 63 65 58 54 52 50 47 44 42 40 40 39 39 40 41 41 40 38 37 37 37 38 38 39 40 39 39 39 39 39 39 38 37 34 32 31 32 32 32 32 31 30 29 29 30 31 32 33 32 31 30 31 36 43 49 53 56 60 67 70 70 66 59 53 49 45 44 45 46 49 50 51 51 51 50 48 45 43 39 36 35 34
42 43 44 45 45 46 48 49 49 47 46 46 46 47 50 54 54 55 55 58 58 58 56 56 57 57 56 53 51 48 44 42 40 40 39 40 39 38 36 36 38 39 39 39 39 39 39 39 39 39 39 39 39 38 36 34 32 31 31 31 31 30 29 29 28 29 30 31 32 32 32 30 29 31 36 43 49 54 56 60 65 68 67 60 54 49 46 44 43 44 46 48 49 50 50 49 47 45 43 40 37 35 35
39 40 42 43 43 44 46 48 48 49 48 48 47 46 46 50 52 54 55 55 54 51 49 51 54 56 56 56 55 54 51 47 44 41 38 38 36 35 34 35 36 37 37 38 38 38 38 39 39 39 39 39 39 39 38 36 34 32 30 30 30 29 29 28 28 28 28 30 31 32 32 31 30 29 30 36 43 49 54 57 60 64 65 61 57 53 50 49 47 46 46 46 47 48 48 48 47 46 44 41 38 36 35
40 40 40 41 42 42 43 45 47 49 50 50 49 48 47 48 49 51 52 52 51 50 47 48 50 52 53 53 54 55 55 53 50 46 41 38 36 34 33 33 34 36 37 37 37 37 36 37 38 39 39 38 38 39 39 38 36 34 32 30 29 28 28 27 27 27 28 29 30 31 32 31 30 29 27 30 36 43 50 54 57 60 61 62 60 57 55 55 54 52 50 48 47 46 46 46 46 45 44 42 40 37 36
42 41 41 41 41 42 42 43 43 45 47 49 50 50 50 49 48 47 48 48 48 48 48 48 49 49 50 50 51 52 54 54 54 52 49 44 39 35 33 32 32 34 37 38 37 35 34 35 36 37 38 38 38 38 38 38 38 36 34 32 30 28 28 27 27 27 27 28 29 31 32 32 31 30 28 27 31 38 45 51 55 58 59 63 64 62 59 59 58 57 56 52 49 47 45 44 44 44 44 43 41 39 37
41 41 41 41 41 41 42 42 43 43 44 46 47 49 50 49 48 47 45 45 45 45 47 48 48 49 49 49 49 50 50 52 53 54 54 51 46 41 37 34 33 34 36 37 37 35 33 33 34 35 36 36 36 37 37 37 38 37 36 34 32 30 29 28 27 27 27 28 29 30 32 32 32 31 30 27 29 35 43 49 54 58 59 63 65 65 62 63 61 60 60 57 54 50 46 43 42 42 43 43 42 40 38
38 39 39 39 39 39 40 41 42 42 42 43 44 45 46 47 47 47 46 44 43 43 44 46 47 47 47 48 48 48 49 50 51 52 54 54 53 49 45 40 38 37 38 37 36 36 34 33 34 34 34 34 35 36 36 37 37 37 36 35 33 32 30 29 29 28 28 28 28 30 31 32 32 32 31 29 29 33 40 47 52 56 58 60 63 64 65 66 65 64 63 62 60 55 49 45 42 40 41 42 42 41 40
37 37 38 38 38 38 38 38 38 39 39 39 40 41 43 43 44 45 45 44 43 43 43 45 46 47 47 46 46 46 46 47 48 49 50 53 53 53 50 47 45 43 41 39 37 36 35 35 34 34 34 34 34 35 35 36 36 36 36 35 34 33 32 31 30 30 29 29 29 30 31 32 33 33 32 30 30 31 37 43 49 53 56 57 59 62 65 67 66 65 66 66 64 61 55 49 44 41 40 40 41 41 42
35 36 36 36 37 37 37 36 36 36 36 35 36 37 38 39 39 40 41 42 42 42 42 43 44 45 46 45 44 44 44 44 44 44 45 48 50 52 52 50 47 45 43 40 38 37 36 35 35 35 34 35 35 35 35 35 35 35 35 35 34 33 32 32 32 31 31 30 30 30 31 32 33 33 33 32 31 31 34 40 45 50 54 56 58 61 63 64 64 64 66 67 67 64 61 55 50 47 44 42 41 42 43
33 33 33 33 33 33 33 34 33 33 33 33 32 33 34 34 34 34 34 35 36 37 39 40 40 40 40 40 40 41 42 42 42 41 41 42 44 46 49 49 48 46 44 41 39 38 37 36 36 35 35 35 35 35 35 35 35 34 34 34 34 33 32 32 31 31 32 32 31 31 31 32 33 33 34 33 32 31 32 36 41 47 51 54 57 59 61 61 62 62 62 66 67 66 64 60 57 54 51 48 46 45 45
32 32 32 32 32 32 31 32 32 32 32 32 31 30 30 30 30 29 29 29 30 32 34 36 37 37 36 36 36 37 37 38 39 39 39 39 39 41 44 46 46 45 43 41 40 39 39 38 37 36 35 35 35 35 35 34 34 34 34 35 34 33 32 31 31 31 31 32 32 33 33 32 32 32 33 33 33 32 32 33 37 42 47 51 54 57 59 58 59 59 61 64 66 65 64 61 59 58 57 55 52 50 49
32 31 32 32 32 32 32 33 33 34 34 34 33 32 31 29 28 26 26 25 26 27 29 31 33 34 33 32 32 32 33 34 35 37 38 37 37 37 38 41 42 42 41 40 40 40 40 41 41 39 36 36 35 35 34 33 32 32 33 34 34 34 33 31 30 30 30 32 33 33 34 33 32 31 31 32 32 33 33 33 35 38 43 47 50 53 55 55 57 59 62 63 64 64 63 61 59 59 59 58 56 54 53
31 31 31 31 32 32 33 34 35 36 37 37 37 36 34 32 29 26 24 23 23 24 25 28 30 30 31 30 29 29 29 30 32 33 35 36 36 36 36 37 38 38 39 39 39 39 41 46 47 45 42 40 38 37 34 32 31 31 31 32 33 33 32 31 29 28 29 31 33 34 34 34 32 31 30 31 32 33 34 34 34 35 38 42 46 49 51 53 56 59 62 62 63 62 61 59 58 58 59 59 57 56 54
29 30 30 30 31 32 33 34 36 37 39 39 39 39 37 35 33 29 26 24 23 23 23 25 28 30 30 29 28 27 28 28 28 30 32 34 35 36 36 35 35 35 37 39 39 40 41 50 52 51 49 47 44 41 37 34 32 31 30 31 31 31 31 30 29 28 28 30 32 34 34 34 33 32 31 32 32 33 34 34 34 34 36 39 42 44 46 49 53 57 60 61 61 61 60 59 58 58 58 59 59 58 56
28 29 29 30 30 32 33 34 36 37 39 40 40 40 39 38 35 32 29 27 25 24 23 24 27 30 32 32 30 28 28 28 28 28 29 32 34 35 36 35 34 34 35 38 39 40 41 49 54 55 54 53 51 48 43 40 37 34 32 31 30 29 29 30 29 29 27 29 31 33 33 33 33 32 32 32 32 33 34 34 34 34 34 36 38 40 42 44 47 52 56 59 60 60 61 60 59 59 59 60 60 60 58
28 28 28 29 30 31 32 34 35 36 38 40 40 41 40 39 37 34 31 29 28 26 25 24 25 28 33 34 34 32 30 30 29 29 30 32 33 35 35 35 34 34 34 36 38 39 41 48 54 58 59 59 58 56 53 48 44 40 37 33 30 28 27 28 29 29 28 28 29 31 32 32 32 32 31 31 31 32 32 32 33 33 33 33 34 35 36 38 40 44 49 53 57 60 62 62 61 62 62 62 63 63 62
28 28 28 28 29 30 31 32 33 35 37 38 39 40 40 39 37 35 32 30 28 28 27 25 25 26 30 34 36 36 35 33 32 32 33 33 34 35 35 35 35 34 34 35 36 38 40 46 53 59 62 62 63 61 59 54 49 45 41 37 33 30 28 28 29 30 29 28 29 30 31 32 32 31 30 30 29 30 30 30 31 31 31 31 31 31 31 32 33 35 39 45 51 57 60 62 64 65 65 65 65 65 64
27 27 26 27 27 28 29 30 31 32 33 35 36 37 37 38 37 35 32 30 28 27 27 26 25 25 27 32 35 38 38 37 36 36 36 36 36 36 36 36 35 35 35 34 34 36 41 44 48 53 58 62 62 61 57 52 47 43 41 38 36 34 31 30 30 30 30 29 28 29 30 31 31 31 29 28 28 28 29 29 30 30 29 29 30 30 29 29 28 29 31 38 45 52 56 61 64 66 67 67 67 66 64
26 25 25 25 25 26 27 28 28 29 30 31 32 33 34 35 35 34 32 30 28 27 27 26 26 26 27 30 33 36 38 39 40 40 41 39 38 37 37 37 36 36 35 35 34 35 39 42 43 44 46 49 51 50 47 43 39 37 36 37 38 38 36 33 31 30 30 28 27 27 28 29 30 30 30 29 29 29 29 30 30 30 29 29 29 30 30 28 27 26 26 31 37 44 51 56 61 64 66 67 68 68 66
24 23 23 23 23 24 24 25 25 26 26 27 27 28 30 31 32 32 31 30 28 27 27 27 27 27 28 30 32 35 38 41 43 44 46 45 42 40 38 37 37 37 37 37 36 36 37 38 38 36 34 36 37 38 38 35 31 29 29 33 37 39 39 36 33 31 30 27 25 24 25 26 28 29 30 30 30 30 31 32 31 30 29 29 29 30 30 29 28 27 26 27 31 36 43 49 55 60 64 65 67 68 68
23 22 22 21 21 21 22 22 22 23 23 23 24 24 25 27 28 29 29 28 27 27 27 27 27 28 29 30 33 36 39 41 44 46 48 49 48 46 42 40 40 39 40 39 39 38 37 36 35 33 31 30 32 33 34 31 28 25 25 29 33 36 38 36 34 33 32 28 25 23 23 24 25 27 29 29 30 31 33 34 33 32 30 28 29 30 31 30 29 28 27 27 28 31 35 42 48 54 58 60 63 65 67
23 22 21 21 21 20 20 20 20 20 21 21 21 21 22 23 24 25 26 26 25 25 26 26 26 28 30 31 34 37 39 42 44 47 52 51 51 50 47 45 44 43 42 41 40 39 38 36 35 34 32 32 33 34 34 30 26 24 24 26 29 32 34 33 33 34 36 32 29 25 23 23 24 25 27 27 28 30 33 35 36 34 32 30 29 30 31 31 30 29 29 29 29 30 32 37 42 46 50 54 58 62 65
24 23 23 22 21 20 20 19 19 19 19 19 19 19 20 20 21 22 23 23 23 23 24 25 26 27 29 32 34 37 39 42 44 48 55 53 51 50 49 48 48 46 44 43 41 39 38 37 36 35 35 35 35 35 33 30 26 24 24 25 27 28 29 29 31 35 41 39 34 29 26 25 25 26 26 27 27 28 30 33 35 37 37 36 34 33 32 32 31 30 30 31 31 32 33 35 38 41 44 49 54 59 61
26 26 25 24 22 21 21 20 19 19 19 19 18 18 17 18 18 19 20 21 21 22 23 24 25 26 27 30 33 37 39 43 45 46 48 50 52 52 50 51 51 49 45 44 42 39 38 37 36 36 37 37 36 35 33 30 28 26 25 26 26 27 26 26 29 34 39 35 31 28 26 27 29 31 31 31 31 31 30 30 32 35 40 43 43 41 37 35 33 32 31 32 32 34 34 36 38 39 41 46 51 56 58
29 28 27 26 25 24 22 21 20 20 20 20 19 18 17 16 16 17 18 19 20 22 22 24 25 26 27 29 32 36 39 42 45 46 47 48 50 52 52 52 52 50 48 47 43 40 36 35 36 36 36 37 36 35 33 31 30 28 27 28 27 27 26 24 25 29 34 27 24 22 23 26 30 35 37 38 38 37 35 32 30 31 34 39 42 43 42 39 36 34 32 32 33 34 35 37 38 38 39 42 46 50 53
32 30 29 27 26 25 24 23 22 21 21 21 21 20 18 17 16 16 17 18 19 21 23 25 26 27 28 30 32 35 38 41 44 46 48 48 48 48 51 51 50 49 48 46 44 42 37 36 36 37 37 37 37 36 35 33 32 31 30 29 28 28 26 24 23 25 28 24 21 19 21 22 26 33 39 42 43 42 42 39 36 33 31 32 35 38 41 40 38 36 33 33 33 33 35 36 37 38 38 40 40 42 47
34 32 30 28 27 26 25 24 24 23 23 23 23 22 21 19 18 16 16 17 18 20 23 25 27 28 29 31 33 35 38 40 42 45 47 48 48 47 47 51 51 49 46 44 43 41 40 38 38 38 37 37 37 37 36 35 34 34 33 31 30 29 28 27 26 25 24 23 20 18 18 19 22 28 36 43 47 49 49 47 45 42 39 36 35 35 38 41 40 38 34 33 33 34 35 36 37 38 38 38 38 39 41
35 33 31 29 28 27 26 25 25 25 25 25 24 24 23 21 20 18 16 17 18 19 23 26 28 29 30 32 34 36 37 39 40 42 46 48 49 48 47 49 50 49 44 41 40 39 39 39 40 40 38 36 36 37 37 37 36 36 36 35 33 32 30 30 30 29 28 25 22 20 20 20 22 27 36 45 51 53 53 52 51 51 49 45 43 41 41 43 43 41 37 36 35 35 35 36 37 37 38 38 37 37 37
37 35 32 31 29 28 27 26 25 25 25 26 26 25 25 24 22 21 19 18 18 19 22 25 28 30 32 33 35 37 39 39 41 42 44 47 49 49 48 48 49 49 47 43 40 39 38 39 40 40 39 37 36 35 37 37 37 37 37 37 36 34 33 33 33 34 34 31 28 26 25 26 27 30 39 48 54 57 55 53 52 53 53 52 50 50 49 50 49 47 44 41 39 38 38 37 37 38 38 38 37 36 36
39 37 34 33 31 30 28 27 26 25 25 26 26 26 26 26 25 24 22 20 19 19 21 25 28 31 33 34 37 39 41 41 42 44 45 48 49 49 48 47 47 47 47 44 42 40 38 38 38 39 39 38 37 36 36 36 37 37 38 38 37 36 36 35 35 36 37 37 36 35 33 32 33 36 42 49 54 57 56 53 51 51 53 54 54 54 55 57 56 55 52 48 46 44 42 41 40 39 39 39 38 37 35
38 37 35 34 32 31 29 28 26 26 25 26 26 27 27 27 27 26 24 22 21 20 21 24 27 30 33 35 38 41 43 43 43 44 47 50 50 49 47 46 46 46 46 45 43 41 38 38 38 37 37 38 38 37 36 36 36 37 37 38 38 38 38 37 37 37 38 40 41 41 41 40 40 41 44 48 52 54 54 52 50 49 53 56 58 57 57 58 58 57 56 54 52 50 49 47 45 43 42 41 39 37 35
35 36 35 34 32 31 29 28 27 26 25 25 26 26 27 28 28 27 26 25 23 22 22 23 26 29 32 35 38 41 44 45 46 46 48 50 51 51 49 47 45 45 45 46 44 42 39 39 39 39 38 38 38 38 37 36 36 36 37 37 38 38 39 38 38 38 39 41 42 43 43 44 45 46 48 49 50 51 52 51 50 49 51 57 60 61 60 60 59 58 56 55 54 53 52 51 49 48 45 43 41 38 35